SCP
0 0 0 0 0 0 0 0 0 0 0 0 0 0 0 0 0 0 0 0 0 0 0 0 0 0 0 0 0 0 0 0 0 0 0 0 0 0 0 0 0 0 0 0
0 0 0 0 0 0 0 0 0 0 0 0 0 0 0 0 0 0 0 0 0 0 0 0 0 0 0 0 0 0 0 0 0 0 0 0 0 0 0 0 0 0 0 0
0 0 0 0 0 0 0 0 0 0 0 0 0 0 0 0 0 0 0 0 0 0 0 0 0 0 0 0 0 0 0 0 0 0 0 0 0 0 0 0 0 0 0 0
0 0 0 0 0 0 0 0 0 0 0 0 0 0 0 0 0 0 0 0 0 0 0 0 0 0 0 0 0 0 0 0 0 0 0 0 0 0 0 0 0 0 0 0
0 0 0 0 0 0 0 0 0 0 0 0 0 0 0 0 0 0 0 0 0 0 0 0 0 0 0 0 0 0 0 0 0 0 0 0 0 0 0 0 0 0 0 0
0 0 0 0 0 0 0 0 0 0 0 0 0 0 0 0 0 0 0 0 0 0 0 0 0 0 0 0 0 0 0 0 0 0 0 0 0 0 0 0 0 0 0 0
0 0 0 0 0 0 0 0 0 0 0 0 0 0 0 0 0 0 0 0 0 0 0 0 0 0 0 0 0 0 0 0 0 0 0 0 0 0 0 0 0 0 0 0
0 0 0 0 0 0 0 0 0 0 0 0 0 0 0 0 0 0 0 0 0 0 0 0 0 0 0 0 0 0 0 0 0 0 0 0 0 0 0 0 0 0 0 0
0 0 0 0 0 0 0 0 0 0 0 0 0 0 0 0 0 0 0 0 0 0 0 0 0 0 0 0 0 0 0 0 0 0 0 0 0 0 0 0 0 0 0 0
0 0 0 0 0 0 0 0 0 0 0 0 0 0 0 0 0 0 0 0 0 0 0 0 0 0 0 0 0 0 0 0 0 0 0 0 0 0 0 0 0 0 0 0
0 0 0 0 0 0 0 0 0 0 0 0 0 0 0 0 0 0 0 0 0 0 0 0 0 0 0 0 0 0 0 0 0 0 0 0 0 0 0 0 0 0 0 0
0 0 0 0 0 0 0 0 0 0 0 0 0 0 0 0 0 0 0 0 0 0 0 0 0 0 0 0 0 0 0 0 0 0 0 0 0 0 0 0 0 0 0 0
0 0 0 0 0 0 0 0 0 0 0 0 0 0 0 0 0 0 0 0 0 0 0 0 0 0 0 0 0 0 0 0 0 0 0 0 0 0 0 0 0 0 0 0
0 0 0 0 0 0 0 0 0 0 0 0 0 0 0 0 0 0 0 0 0 0 0 0 0 0 0 0 0 0 0 0 0 0 0 0 0 0 0 0 0 0 0 0
0 0 0 0 0 0 0 0 0 0 0 0 0 0 0 0 0 0 0 0 0 0 0 0 0 0 0 0 0 0 0 0 0 0 0 0 0 0 0 0 0 0 0 0
0 0 0 0 0 0 0 0 0 0 0 0 0 0 0 0 0 0 0 0 0 0 0 0 0 0 0 0 0 0 0 0 0 0 0 0 0 0 0 0 0 0 0 0
0 0 0 0 0 0 0 0 0 0 0 0 0 0 0 0 0 0 0 0 0 0 0 0 0 0 0 0 0 0 0 0 0 0 0 0 0 0 0 0 0 0 0 0
0 0 0 0 0 0 0 0 0 0 0 0 0 0 0 0 0 0 0 0 0 0 0 0 0 0 0 0 0 0 0 0 0 0 0 0 0 0 0 0 0 0 0 0
0 0 0 0 0 0 0 0 0 0 0 0 0 0 0 0 0 0 0 0 0 0 0 0 0 0 0 0 0 0 0 0 0 0 0 0 0 0 0 0 0 0 0 0
0 0 0 0 0 0 0 0 0 0 0 0 0 0 0 0 0 0 0 0 0 0 0 0 0 0 0 0 0 0 0 0 0 0 0 0 0 0 0 0 0 0 0 0
0 0 0 0 0 0 0 0 0 0 0 0 0 0 0 0 0 0 0 0 0 0 0 0 0 0 0 0 0 0 0 0 0 0 0 0 0 0 0 0 0 0 0 0
0 0 0 0 0 0 0 0 0 0 0 0 0 0 0 0 0 0 0 0 0 0 0 0 0 0 0 0 0 0 0 0 0 0 0 0 0 0 0 0 0 0 0 0
0 0 0 0 0 0 0 0 0 0 0 0 0 0 0 0 0 0 0 0 0 0 0 0 0 0 0 0 0 0 0 0 0 0 0 0 0 0 0 0 0 0 0 0
0 0 0 0 0 0 0 0 0 0 0 0 0 0 0 0 0 0 0 0 0 0 0 0 0 0 0 0 0 0 0 0 0 0 0 0 0 0 0 0 0 0 0 0
0 0 0 0 0 0 0 0 0 0 0 0 0 0 0 0 0 0 0 0 0 0 0 0 0 0 0 0 0 0 0 0 0 0 0 0 0 0 0 0 0 0 0 0
0 0 0 0 0 0 0 0 0 0 0 0 0 0 0 0 0 0 0 0 0 0 0 0 0 0 0 0 0 0 0 0 0 0 0 0 0 0 0 0 0 0 0 0
Wind_Speed
4 3 4 5 6 6 6 7 8 6 2 4 9 11 10 6 7 8 7 6 6 6 5 5 5 5 5 5 5 7 6 6 5 4 3 3 3 3 2 2 2 3 3 4
3 6 5 4 5 6 8 8 8 5 2 4 7 12 10 7 8 7 7 7 6 4 4 5 6 6 5 5 5 6 6 6 6 4 3 2 2 2 3 2 2 3 3 3
6 2 3 6 5 6 8 7 6 6 6 6 6 8 7 5 6 6 6 7 6 6 5 5 6 6 5 5 6 5 5 6 5 4 3 2 2 1 2 3 3 3 4 4
5 4 4 5 6 6 7 3 5 5 5 4 3 6 5 5 6 7 7 6 5 5 5 4 5 5 5 5 4 5 5 5 5 5 4 5 4 4 4 3 3 4 4 4
3 2 3 6 5 5 4 2 4 5 5 5 5 5 6 5 5 6 6 6 5 4 4 4 4 5 5 4 4 4 4 5 5 4 4 4 3 3 2 3 4 4 4 4
4 2 2 3 2 4 3 2 4 3 2 5 6 5 6 4 5 4 5 5 4 3 3 3 3 2 3 3 4 4 4 4 5 5 4 4 4 3 3 4 4 4 3 3
4 4 3 1 2 2 3 1 1 2 3 6 4 4 7 2 2 1 2 3 4 3 3 2 2 2 2 2 3 3 4 4 5 5 5 5 4 4 5 4 4 4 3 4
3 4 5 3 3 2 5 3 3 3 3 3 3 7 5 1 2 2 2 2 3 2 2 2 2 3 3 3 3 3 3 4 4 5 5 4 4 4 3 4 3 4 4 4
3 3 2 2 1 2 3 4 2 1 2 4 5 4 2 1 2 2 2 2 1 1 2 2 1 2 2 3 3 3 2 2 3 4 4 4 5 4 4 3 3 3 3 3
2 3 2 2 1 3 3 2 1 3 2 5 5 4 4 2 1 2 1 1 0 1 1 1 1 1 1 2 2 2 2 1 1 2 3 3 4 4 4 3 4 3 4 3
2 2 2 2 5 5 4 4 3 3 3 3 4 4 1 4 4 3 1 1 0 1 1 1 1 2 1 1 2 1 1 1 1 1 2 2 2 3 3 3 3 3 3 4
2 2 4 4 1 1 3 5 5 4 4 4 4 6 1 3 3 3 2 1 2 2 1 1 1 2 2 1 1 1 0 0 1 1 1 2 2 2 2 3 2 2 3 3
0 2 2 2 1 1 3 4 5 3 2 4 5 6 1 3 3 2 2 1 1 2 2 2 1 1 1 1 1 0 0 1 1 0 1 1 1 2 2 2 2 2 2 2
2 3 6 6 3 2 4 5 6 5 5 6 9 8 4 2 1 1 1 1 1 2 1 1 1 1 1 1 0 1 1 1 0 0 1 1 2 2 2 2 2 2 2 2
1 3 5 8 7 4 6 7 9 10 10 9 8 8 9 4 3 2 1 1 2 2 2 2 2 2 1 1 1 1 1 1 1 1 1 1 1 1 1 1 1 1 1 2
1 3 3 7 5 5 9 10 10 11 10 11 10 12 8 4 3 3 2 2 2 2 2 2 2 2 2 2 2 1 2 1 1 1 1 1 1 1 1 1 1 1 1 1
3 3 2 5 3 5 10 11 10 7 7 7 11 10 5 4 4 3 3 2 2 2 3 3 3 3 2 2 2 2 2 1 1 1 1 1 1 1 1 0 0 1 1 1
4 3 2 3 2 9 7 1 6 7 6 6 6 6 5 5 4 2 3 3 3 3 3 3 3 3 3 2 2 2 1 1 1 1 1 1 1 1 1 0 1 1 1 1
4 4 3 3 5 9 5 2 2 4 6 5 7 8 8 6 4 2 4 4 3 3 3 3 3 3 2 3 2 1 1 1 1 1 2 2 1 1 1 1 1 1 1 1
2 3 3 4 5 7 4 1 2 2 5 2 2 4 5 3 3 3 5 5 5 4 3 3 3 3 3 3 2 1 1 1 1 2 2 2 1 1 1 1 1 1 1 1
3 4 6 7 7 7 4 2 1 3 4 2 2 2 3 2 3 4 5 5 4 4 4 4 3 3 3 3 2 1 1 2 3 3 2 2 1 1 1 1 1 1 1 1
7 6 6 5 7 9 1 2 3 2 2 3 3 3 3 4 4 4 4 4 4 4 4 4 3 3 3 3 2 2 2 3 3 2 2 2 2 1 1 1 1 1 1 0
7 7 5 7 7 1 3 2 0 2 2 3 3 4 3 4 5 5 5 5 5 5 4 4 3 4 4 3 2 2 3 3 3 2 2 2 2 1 1 1 0 0 0 0
3 2 3 4 5 2 1 1 2 2 2 3 4 4 4 5 6 6 6 6 6 5 5 4 3 4 4 4 3 3 3 3 2 2 2 1 1 1 1 1 0 0 1 1
3 2 3 5 4 3 1 2 3 3 4 5 6 5 5 5 6 6 6 6 6 6 5 4 3 4 5 4 4 3 3 2 1 2 1 1 1 1 1 1 1 1 1 2
2 3 5 6 2 3 3 3 4 4 5 5 6 7 7 6 6 6 6 5 5 5 5 5 4 4 4 4 4 3 3 1 1 1 1 1 1 1 1 1 1 3 2 3
Wind_Direction
187 216 222 226 229 259 286 278 275 277 266 243 249 261 263 241 231 237 232 226 213 208 188 167 162 159 157 162 168 170 173 173 169 170 178 183 187 179 179 190 182 180 184 180
207 232 239 248 242 252 262 270 278 288 295 273 266 266 260 241 226 227 227 227 215 198 177 170 166 163 169 171 173 175 178 176 178 180 183 183 167 177 177 182 193 183 179 184
226 249 245 243 248 255 254 256 273 287 301 262 275 272 235 223 210 219 227 226 213 198 194 184 174 176 177 181 183 186 181 179 179 175 169 161 150 152 179 193 203 202 191 192
242 247 253 244 246 251 258 264 272 277 287 275 244 280 245 213 214 219 224 222 215 204 191 185 178 180 181 184 181 180 176 176 177 173 183 186 190 197 205 199 198 199 194 190
236 209 244 243 246 246 263 308 274 265 258 275 232 248 266 200 225 223 219 213 205 199 187 180 184 186 178 175 175 176 172 173 175 178 193 198 208 214 198 189 192 200 197 194
251 258 266 264 264 247 262 269 251 250 244 259 224 218 267 219 215 210 199 198 195 190 184 177 171 157 166 166 165 170 173 177 178 184 193 202 210 211 201 198 200 204 202 200
243 222 207 222 242 222 224 208 286 254 234 246 189 209 249 238 167 157 170 180 182 177 179 173 159 161 167 167 172 178 179 184 182 188 197 205 209 210 212 208 206 206 203 207
244 241 187 195 209 215 215 204 191 236 255 277 198 225 240 158 77 65 83 128 146 154 163 170 175 176 182 181 176 179 194 198 190 193 200 204 208 210 218 217 211 210 212 214
249 250 121 171 230 237 216 215 222 248 284 273 249 238 247 140 82 70 72 77 114 149 158 160 161 174 182 180 182 183 197 217 209 206 202 205 209 211 217 221 218 212 215 210
271 268 223 167 194 242 249 246 178 192 234 266 264 239 232 196 168 109 83 59 86 138 132 143 147 145 159 167 171 172 189 214 230 222 222 222 215 215 215 211 217 216 213 206
255 236 244 205 204 198 193 207 214 217 221 230 270 263 211 146 148 150 148 113 69 135 140 140 120 113 118 121 129 144 172 209 234 250 246 234 226 224 222 223 223 212 206 196
231 235 249 224 190 296 217 212 191 198 231 228 251 264 76 100 104 113 108 69 36 62 93 100 95 92 93 100 104 113 170 252 268 259 272 240 230 224 228 234 233 205 201 199
235 208 267 267 220 239 240 228 216 215 219 223 229 255 88 78 86 99 93 75 52 55 59 56 57 73 74 77 74 45 271 266 286 301 274 261 240 231 231 238 239 216 204 200
288 234 226 239 256 179 224 229 215 206 217 235 233 251 265 277 290 323 58 60 56 40 44 37 11 357 349 337 349 331 319 326 312 247 248 258 254 242 238 232 223 215 204 201
278 252 261 272 281 266 243 232 215 216 225 230 246 248 262 267 277 304 355 12 13 9 3 354 337 333 335 333 334 341 326 334 334 277 260 272 280 271 250 240 227 212 211 218
226 255 290 280 266 264 265 251 229 228 235 245 261 269 275 295 307 317 326 336 338 345 335 331 331 329 322 314 313 322 323 333 331 289 273 293 297 273 276 274 246 228 226 225
199 202 250 274 296 305 264 241 215 214 218 217 238 254 302 312 315 320 331 334 336 333 334 330 321 322 320 307 304 289 303 340 329 296 305 306 303 279 274 302 312 257 245 229
200 203 227 270 299 248 245 241 189 204 230 227 252 282 305 305 312 343 356 353 341 340 341 336 331 324 324 329 326 326 358 10 325 331 336 320 312 304 316 300 268 274 267 238
221 202 220 227 252 267 281 271 176 211 251 239 245 271 289 301 310 314 15 10 344 337 336 331 332 327 336 339 339 356 10 20 6 334 332 323 302 302 298 252 261 274 280 264
230 212 219 227 240 248 270 288 279 192 259 304 255 274 300 326 292 295 1 357 346 350 357 354 350 355 356 350 359 16 350 345 309 310 315 321 304 271 270 273 292 317 296 277
172 202 217 227 242 260 289 306 54 184 268 337 345 340 337 293 267 310 340 343 346 353 359 360 357 359 353 0 12 350 329 309 324 338 343 346 345 318 324 339 345 360 20 26
182 186 205 207 228 250 345 109 173 246 351 3 355 350 332 313 312 320 323 329 344 354 357 1 357 353 2 10 9 334 316 330 347 349 350 349 349 342 355 23 10 23 72 116
203 200 197 202 219 232 138 173 285 12 352 349 342 336 326 313 312 318 321 328 340 344 343 352 350 344 356 4 359 315 318 341 345 348 342 342 346 345 351 19 24 29 47 210
234 244 220 239 254 259 250 318 360 8 355 345 340 332 332 316 315 319 322 330 333 335 337 344 349 338 336 343 343 325 332 344 344 332 328 333 337 343 352 353 7 296 262 257
223 191 229 246 276 313 292 351 338 347 355 346 341 340 337 329 321 321 321 323 324 326 331 338 334 319 320 329 330 332 332 340 327 316 319 323 317 303 333 347 334 290 275 248
207 211 217 241 259 268 285 349 356 355 346 343 342 339 340 335 319 319 315 317 319 322 326 327 323 317 317 319 318 321 316 308 286 289 290 287 289 291 275 292 335 341 330 323